Temperature
8 8 8 7 7 6 6 6 5 5 5 5 4 4 4 4 3 3 3 2 2 2 1 1 1 0 -0 -0 -1 -1 -1 -1 -2 -1 -1 -1 -1 -1 -1 -1 -1 -1 -1
8 7 7 6 6 6 6 5 5 5 5 4 4 4 3 3 3 2 2 1 1 1 0 -0 -0 -1 -1 -1 -1 -2 -2 -2 -2 -2 -2 -2 -2 -2 -2 -2 -2 -2 -2
7 7 6 6 6 5 5 5 5 4 4 4 3 3 3 2 2 2 1 0 -0 -0 -1 -1 -2 -2 -2 -2 -2 -3 -3 -3 -3 -3 -3 -3 -3 -3 -3 -3 -2 -2 -2
6 6 6 5 5 5 4 4 4 4 3 3 3 2 2 2 1 1 -0 -1 -1 -1 -2 -2 -3 -3 -3 -3 -3 -3 -3 -3 -3 -3 -3 -3 -3 -3 -3 -3 -3 -3 -2
6 6 5 5 5 4 4 4 3 3 3 2 2 2 1 1 0 -0 -1 -2 -2 -2 -2 -3 -3 -4 -4 -4 -4 -4 -4 -4 -4 -4 -4 -4 -4 -3 -3 -3 -3 -3 -3
5 5 5 4 4 4 3 3 3 2 2 2 1 1 0 0 -0 -1 -2 -2 -3 -3 -3 -4 -4 -4 -4 -4 -4 -4 -4 -4 -3 -4 -4 -4 -4 -4 -4 -4 -4 -4 -4
5 5 4 4 3 3 3 2 2 1 1 1 0 -0 -0 -0 -1 -2 -3 -3 -4 -4 -4 -4 -5 -5 -5 -5 -5 -4 -4 -4 -4 -4 -4 -4 -4 -4 -4 -4 -4 -4 -4
4 4 4 3 3 2 2 2 1 1 0 -0 -0 -1 -1 -1 -2 -3 -3 -4 -4 -4 -5 -5 -5 -5 -5 -5 -5 -5 -4 -4 -4 -4 -4 -4 -4 -4 -4 -4 -4 -4 -4
4 3 3 2 2 1 1 1 0 -0 -0 -1 -1 -2 -2 -2 -3 -3 -4 -5 -5 -5 -5 -5 -5 -5 -5 -5 -5 -5 -4 -4 -4 -4 -4 -4 -4 -4 -4 -4 -4 -4 -4
3 3 2 2 1 1 0 0 -0 -1 -1 -2 -2 -2 -3 -3 -4 -4 -5 -5 -5 -5 -5 -5 -5 -5 -5 -5 -5 -5 -5 -4 -4 -4 -4 -4 -4 -4 -4 -4 -4 -4 -4
2 2 2 1 1 0 -0 -1 -1 -2 -2 -2 -3 -3 -3 -4 -4 -5 -5 -5 -5 -5 -5 -5 -5 -5 -5 -5 -5 -5 -5 -4 -4 -4 -5 -5 -4 -4 -4 -4 -5 -5 -5
2 1 1 1 0 -0 -1 -1 -1 -2 -3 -3 -3 -3 -4 -4 -5 -5 -6 -6 -6 -6 -6 -6 -6 -6 -5 -5 -5 -5 -5 -5 -5 -5 -5 -5 -5 -5 -5 -5 -5 -5 -5
1 1 1 0 -0 -1 -1 -2 -2 -3 -3 -3 -4 -4 -4 -5 -5 -6 -6 -6 -6 -6 -6 -6 -6 -6 -6 -6 -5 -5 -5 -5 -5 -5 -6 -6 -6 -6 -6 -6 -6 -5 -5
0 0 -0 -1 -1 -1 -2 -2 -3 -3 -4 -4 -5 -5 -5 -5 -6 -6 -6 -6 -6 -6 -6 -6 -6 -6 -6 -6 -6 -6 -6 -6 -6 -6 -6 -6 -6 -6 -6 -6 -6 -6 -6
-0 -0 -1 -1 -2 -2 -2 -3 -3 -4 -4 -5 -5 -5 -6 -6 -6 -6 -6 -6 -6 -6 -6 -6 -6 -6 -6 -6 -6 -6 -6 -6 -7 -7 -7 -7 -7 -7 -6 -6 -7 -7 -6
-1 -1 -1 -2 -2 -3 -3 -3 -3 -4 -5 -5 -5 -6 -6 -6 -6 -6 -6 -7 -6 -6 -6 -6 -7 -7 -7 -7 -7 -7 -7 -7 -7 -7 -7 -7 -7 -7 -7 -7 -7 -7 -7
-2 -2 -2 -3 -3 -3 -4 -4 -5 -4 -5 -5 -6 -6 -6 -7 -7 -7 -7 -7 -7 -7 -7 -7 -7 -7 -7 -7 -8 -8 -7 -7 -8 -8 -8 -7 -7 -7 -7 -7 -7 -7 -7
-2 -2 -3 -3 -4 -4 -5 -5 -6 -6 -6 -6 -6 -6 -7 -7 -7 -7 -7 -7 -7 -7 -7 -7 -8 -8 -8 -8 -8 -8 -8 -8 -8 -8 -8 -8 -8 -8 -8 -8 -7 -7 -7
-3 -3 -3 -4 -4 -5 -5 -6 -6 -7 -7 -7 -7 -7 -7 -7 -8 -8 -8 -8 -8 -8 -8 -8 -8 -8 -8 -8 -8 -8 -8 -8 -8 -8 -8 -8 -8 -8 -8 -8 -8 -8 -8
-3 -4 -4 -5 -5 -6 -6 -6 -7 -7 -7 -7 -8 -8 -8 -8 -8 -8 -8 -8 -8 -8 -8 -8 -8 -8 -8 -9 -9 -9 -9 -9 -9 -9 -9 -9 -8 -8 -8 -8 -8 -8 -8
-4 -4 -5 -5 -6 -6 -7 -7 -7 -7 -8 -8 -8 -8 -8 -8 -8 -8 -8 -9 -9 -9 -9 -9 -9 -9 -9 -9 -9 -9 -9 -9 -9 -9 -9 -9 -9 -9 -9 -9 -8 -8 -8
-5 -5 -6 -6 -6 -7 -7 -7 -8 -8 -8 -8 -8 -8 -9 -9 -9 -9 -9 -9 -9 -9 -9 -9 -9 -9 -9 -9 -9 -9 -9 -9 -9 -9 -9 -9 -9 -9 -9 -9 -9 -9 -9
-5 -6 -6 -7 -7 -7 -8 -8 -8 -8 -8 -9 -9 -9 -9 -9 -9 -9 -9 -9 -9 -9 -9 -9 -9 -9 -9 -9 -9 -9 -9 -9 -9 -9 -9 -9 -9 -9 -9 -9 -9 -9 -9
-6 -7 -7 -7 -7 -8 -8 -8 -8 -8 -9 -9 -9 -9 -10 -10 -10 -10 -10 -9 -9 -9 -9 -9 -9 -9 -9 -9 -9 -9 -9 -9 -9 -10 -10 -10 -10 -9 -10 -9 -9 -9 -9
-7 -7 -7 -8 -8 -8 -8 -8 -9 -9 -9 -9 -10 -10 -10 -10 -10 -10 -10 -10 -10 -10 -9 -9 -9 -9 -9 -9 -9 -9 -9 -9 -10 -10 -10 -10 -10 -10 -10 -10 -10 -9 -9
-8 -8 -8 -8 -8 -9 -9 -9 -9 -10 -10 -10 -10 -10 -10 -10 -10 -10 -10 -10 -10 -10 -10 -10 -10 -10 -10 -10 -9 -9 -9 -10 -10 -10 -10 -10 -10 -10 -10 -10 -10 -10 -10
Wind_Speed
2 1 1 2 2 3 4 5 5 5 6 7 8 8 9 9 9 8 9 9 10 10 10 10 11 10 9 8 8 8 9 10 18 17 8 7 10 11 11 14 17 16 18
2 1 2 2 3 4 5 6 6 7 7 8 8 9 10 10 9 9 10 10 10 11 11 11 11 11 11 9 8 10 10 10 14 20 13 8 10 10 11 12 11 15 14
1 1 3 3 4 5 6 6 7 7 8 8 9 9 10 10 10 10 10 11 11 11 11 11 12 12 13 11 11 11 11 12 11 15 16 9 8 9 10 11 13 11 14
0 2 3 4 5 6 7 7 8 8 9 9 10 10 11 11 11 11 11 11 11 11 11 12 12 13 14 14 14 13 12 12 12 14 15 12 10 9 9 10 11 9 11
1 3 4 5 6 7 7 8 8 9 10 10 11 11 11 10 10 11 10 10 11 11 12 12 14 18 23 20 16 12 12 12 12 13 15 14 12 9 10 9 13 10 10
2 4 5 6 7 7 8 9 9 10 10 11 11 11 11 11 19 24 19 12 10 11 12 12 14 17 22 26 28 26 22 16 13 14 15 16 15 12 11 11 12 13 12
4 6 6 7 8 8 9 9 10 10 10 11 10 11 11 14 23 25 25 16 12 11 12 11 14 15 21 14 20 26 24 27 26 18 17 17 16 13 12 14 14 15 15
6 7 7 7 8 9 9 10 10 9 10 10 11 11 12 15 24 26 26 16 12 12 12 12 14 14 15 17 14 14 14 16 19 16 14 15 15 13 13 15 16 16 14
7 8 8 8 8 9 10 10 10 9 10 10 10 11 12 15 23 25 25 12 11 12 12 12 14 14 22 27 18 15 15 14 19 25 26 24 27 27 22 13 12 13 14
8 7 7 7 8 10 10 11 9 9 11 11 11 11 12 13 20 24 24 10 11 11 11 11 19 21 25 27 17 14 16 14 13 15 17 19 18 19 23 14 10 13 12
7 7 8 8 9 10 10 9 10 10 10 11 12 11 11 14 19 23 24 13 11 12 11 10 11 23 27 28 25 16 20 20 13 12 12 11 11 10 10 10 9 11 13
7 8 9 9 9 9 10 10 10 10 11 11 11 12 9 11 16 20 25 24 22 14 12 10 13 25 28 29 23 22 27 23 10 9 9 9 9 8 8 8 9 10 11
8 9 9 10 9 9 10 10 9 9 9 10 10 11 11 8 12 23 25 26 26 18 13 21 25 29 28 20 22 26 21 10 8 9 9 9 7 7 7 6 7 8 9
9 9 9 9 9 9 8 8 8 8 9 10 11 12 12 11 9 9 10 14 19 17 15 19 25 26 21 20 18 14 8 8 8 8 8 8 6 6 6 6 6 6 6
9 9 9 9 9 9 9 8 10 9 11 13 11 11 13 14 15 23 20 13 12 14 16 12 10 9 9 8 8 8 7 6 7 7 7 8 7 7 6 5 5 5 6
9 9 8 8 8 8 10 11 15 17 23 25 24 23 18 23 29 30 29 29 29 27 20 12 11 10 10 9 9 8 6 6 7 7 7 7 7 7 6 5 5 6 6
9 9 8 8 9 9 9 11 14 15 20 22 24 26 26 28 29 29 28 28 27 25 13 10 10 9 9 8 8 8 8 7 6 7 7 7 7 6 6 6 5 6 6
9 11 11 9 8 9 10 10 11 14 15 12 15 23 26 27 27 27 27 23 15 12 8 10 9 9 8 8 8 8 8 7 7 7 7 7 6 6 7 6 6 6 6
9 8 9 9 9 9 10 11 12 13 14 14 12 14 21 23 24 25 22 11 11 11 9 9 8 8 8 8 8 8 8 8 7 7 7 7 6 6 7 7 7 10 8
9 15 15 11 10 10 10 11 12 13 13 13 14 13 11 14 12 12 10 9 10 10 10 9 8 8 8 8 8 8 8 8 7 7 7 7 6 6 7 8 7 7 6
8 11 18 14 10 11 11 12 12 13 13 14 13 16 22 15 13 12 11 10 10 10 10 9 9 8 8 7 7 8 9 8 7 7 7 6 6 7 6 6 7 7 6
8 9 9 11 11 11 13 12 13 13 13 15 14 15 23 15 11 12 11 11 10 9 9 9 9 8 8 8 8 9 9 8 7 7 7 7 7 7 7 6 6 6 6
9 11 12 12 11 16 17 13 12 12 13 13 14 14 13 12 12 12 12 11 10 10 9 9 10 9 8 8 8 8 9 9 8 7 8 8 7 7 7 7 7 7 7
9 11 13 13 13 13 13 13 12 13 13 13 13 13 13 12 12 13 12 11 10 10 9 9 10 12 13 10 9 8 8 9 8 8 9 9 8 7 7 7 8 8 8
10 12 13 13 13 13 13 13 13 13 13 13 13 13 13 13 13 13 12 11 11 11 11 11 10 11 12 13 12 10 15 18 17 11 8 8 9 9 8 8 8 8 8
11 13 13 13 12 12 12 13 13 13 13 14 13 13 13 13 13 13 12 11 11 11 11 10 11 12 13 12 13 16 20 20 20 19 12 8 9 9 9 9 10 9 9
Wind_Direction
93 67 23 344 331 314 299 294 297 297 298 295 292 291 289 287 284 282 280 281 279 279 278 276 273 271 269 265 262 260 260 261 274 281 266 261 261 267 274 274 275 273 272
93 31 336 317 310 303 300 302 304 301 298 295 293 291 288 287 286 284 285 286 284 284 284 284 284 286 280 276 270 267 266 262 270 280 281 268 261 264 267 269 273 273 266
88 334 310 307 306 301 300 302 302 298 294 291 289 287 286 286 285 282 280 280 278 279 282 284 285 286 284 280 275 272 271 272 268 275 281 275 268 266 270 269 266 266 267
56 300 297 297 297 295 296 297 295 292 290 289 286 284 283 282 281 279 278 277 276 275 275 274 277 276 277 277 277 273 272 271 269 272 277 278 272 263 262 267 271 260 263
293 288 285 289 293 294 293 291 289 287 287 285 284 283 281 281 281 280 277 275 274 276 275 272 273 278 279 280 278 272 267 268 269 271 274 277 274 268 263 264 270 270 262
287 284 288 291 291 288 286 285 286 285 284 284 283 284 284 288 294 296 295 285 277 278 280 279 280 283 284 285 285 284 281 277 275 273 275 275 276 271 268 267 270 273 273
279 279 282 282 282 281 283 286 285 286 285 285 285 286 286 288 296 299 299 297 286 283 282 284 289 288 291 283 283 284 283 282 280 278 277 276 278 274 271 272 269 269 270
272 274 274 273 276 279 281 283 284 283 285 287 289 288 289 292 300 302 302 299 287 283 280 280 282 282 281 284 278 275 271 272 274 275 269 270 270 267 261 265 268 269 267
268 269 269 271 277 281 283 283 284 286 288 287 287 288 289 293 299 302 302 293 287 282 280 281 284 282 285 290 288 280 279 275 277 277 275 275 274 275 272 268 264 268 270
268 270 276 279 280 281 281 282 284 284 285 287 287 286 287 288 296 302 302 294 290 287 283 279 285 288 291 292 288 283 283 282 276 276 276 276 276 276 277 269 266 270 273
274 281 281 279 277 278 279 280 281 282 283 285 287 287 285 289 298 301 302 300 291 290 290 287 283 292 293 293 292 286 284 286 279 274 275 272 267 262 259 253 248 253 262
280 280 279 278 280 284 281 281 280 283 286 287 289 290 285 287 293 297 299 299 300 296 293 290 287 294 295 296 296 292 293 295 289 283 280 278 274 268 260 252 250 248 248
281 279 279 280 279 279 280 283 286 284 284 287 287 290 291 283 287 295 298 299 299 298 291 293 297 299 301 299 295 296 297 294 288 284 282 279 272 267 267 265 259 254 254
280 281 281 283 284 281 280 280 282 282 284 286 288 291 293 290 285 284 283 290 293 293 291 291 295 296 296 293 294 295 288 279 282 279 282 280 278 275 272 269 271 264 260
279 280 282 281 282 284 280 277 281 273 277 287 287 286 292 294 292 296 299 296 293 289 295 290 289 290 288 286 285 285 281 283 286 278 281 283 281 275 272 266 263 266 260
281 281 281 282 282 282 286 288 280 280 289 290 291 292 292 292 298 301 302 301 302 301 301 294 293 291 291 292 293 290 283 281 280 281 282 280 278 275 273 266 258 257 259
276 280 282 281 283 283 284 289 294 294 289 290 293 295 296 298 301 302 304 304 303 303 297 290 288 288 288 289 288 288 285 281 280 280 282 279 276 273 271 267 259 256 254
278 282 286 281 279 280 283 285 288 293 298 293 291 294 297 299 301 303 305 307 302 297 282 283 283 283 285 285 284 285 284 283 280 279 277 275 271 271 271 266 257 251 251
281 281 280 279 278 281 284 286 287 287 289 293 295 295 297 300 302 300 302 296 293 291 287 283 280 281 281 281 282 281 280 280 278 277 275 273 270 268 268 264 260 259 255
278 283 288 287 284 284 285 287 288 288 289 291 293 296 299 298 295 295 290 284 285 286 286 284 281 279 278 278 278 280 279 276 272 270 270 270 268 265 267 265 260 256 248
277 283 289 289 284 285 286 286 287 287 288 290 290 293 297 298 296 294 292 289 285 284 285 284 282 279 277 276 275 276 275 275 270 268 268 268 268 267 264 263 263 257 250
278 280 281 282 284 285 287 285 285 286 287 290 292 295 298 296 291 290 288 286 282 279 277 279 279 275 271 270 272 275 275 274 272 269 267 265 264 264 264 262 260 255 249
278 282 284 284 284 287 290 287 286 286 287 288 291 294 294 291 289 288 288 286 283 282 278 277 279 278 272 266 265 266 269 272 269 264 265 266 263 260 260 259 257 255 249
278 281 284 286 286 285 287 288 287 287 287 289 290 291 292 291 290 290 288 285 283 281 279 277 276 275 273 272 271 266 263 265 265 262 257 258 259 259 257 257 254 250 248
283 285 286 286 286 288 289 289 289 289 290 291 292 292 292 292 292 291 289 286 283 282 281 279 279 278 275 272 271 268 272 276 276 271 257 252 252 250 252 254 253 251 246
287 287 288 287 287 288 289 290 291 292 292 293 292 291 292 292 292 291 290 288 286 285 284 282 278 276 276 276 274 274 279 280 278 276 268 254 247 248 247 249 248 247 246
Height
1514 1513 1512 1511 1510 1508 1507 1505 1503 1501 1498 1496 1493 1490 1487 1484 1481 1477 1474 1470 1467 1464 1461 1458 1454 1452 1449 1447 1444 1442 1439 1436 1426 1416 1419 1420 1419 1418 1417 1416 1414 1412 1411
1511 1510 1509 1508 1506 1504 1502 1500 1498 1495 1493 1490 1486 1483 1480 1476 1473 1469 1465 1462 1458 1455 1451 1448 1445 1443 1439 1437 1434 1431 1429 1426 1421 1411 1408 1409 1409 1408 1407 1405 1403 1402 1400
1507 1506 1505 1504 1502 1500 1498 1495 1492 1489 1486 1483 1479 1476 1472 1468 1465 1461 1457 1453 1449 1446 1442 1439 1435 1433 1428 1426 1423 1420 1418 1416 1413 1407 1399 1399 1398 1398 1396 1394 1393 1391 1390
1503 1502 1501 1499 1497 1495 1492 1490 1486 1483 1479 1476 1472 1468 1464 1460 1456 1452 1448 1444 1440 1436 1433 1429 1426 1423 1419 1416 1413 1410 1408 1405 1403 1399 1393 1390 1389 1388 1387 1384 1381 1380 1379
1499 1498 1496 1494 1492 1489 1486 1483 1480 1476 1473 1469 1465 1461 1457 1453 1449 1444 1440 1435 1431 1427 1423 1420 1416 1413 1410 1408 1404 1401 1399 1396 1393 1389 1385 1381 1379 1379 1377 1375 1373 1370 1368
1495 1493 1491 1489 1486 1483 1480 1477 1473 1469 1466 1462 1457 1453 1449 1445 1441 1437 1433 1427 1422 1418 1413 1410 1407 1404 1401 1398 1396 1393 1391 1388 1384 1381 1377 1374 1371 1370 1369 1367 1365 1362 1358
1490 1488 1486 1483 1480 1477 1474 1470 1466 1462 1458 1454 1450 1446 1441 1437 1433 1429 1424 1420 1414 1410 1405 1401 1398 1395 1392 1389 1385 1383 1381 1379 1377 1374 1369 1365 1363 1362 1361 1358 1356 1353 1350
1485 1483 1481 1478 1474 1471 1467 1464 1460 1456 1451 1447 1443 1438 1433 1429 1425 1421 1416 1411 1406 1401 1398 1394 1390 1386 1384 1380 1376 1373 1370 1368 1367 1364 1360 1357 1355 1353 1352 1349 1346 1343 1341
1480 1478 1475 1472 1468 1465 1461 1457 1453 1449 1444 1440 1435 1430 1425 1420 1417 1412 1408 1402 1397 1393 1390 1386 1383 1378 1375 1373 1369 1364 1360 1358 1356 1354 1351 1348 1346 1344 1343 1340 1337 1335 1331
1475 1472 1470 1466 1463 1458 1454 1450 1446 1442 1436 1432 1427 1423 1418 1413 1409 1405 1401 1395 1389 1384 1381 1378 1375 1371 1368 1365 1361 1356 1351 1348 1346 1343 1340 1338 1336 1334 1333 1332 1329 1327 1324
1469 1467 1464 1460 1456 1452 1447 1443 1439 1434 1429 1424 1419 1414 1410 1405 1401 1397 1393 1389 1383 1377 1373 1369 1366 1363 1359 1356 1353 1348 1344 1340 1337 1333 1330 1327 1325 1323 1322 1321 1320 1318 1316
1463 1460 1457 1453 1449 1445 1441 1436 1432 1427 1421 1416 1410 1405 1401 1397 1393 1388 1385 1381 1377 1371 1365 1361 1357 1354 1351 1347 1343 1339 1336 1333 1328 1325 1322 1319 1317 1315 1313 1312 1311 1309 1308
1457 1453 1450 1446 1442 1438 1434 1429 1424 1419 1414 1408 1403 1397 1391 1388 1384 1381 1377 1373 1368 1364 1358 1354 1350 1346 1342 1337 1334 1330 1327 1324 1320 1317 1314 1311 1309 1307 1305 1304 1302 1301 1299
1450 1446 1443 1438 1434 1430 1426 1422 1417 1412 1407 1401 1396 1390 1383 1379 1375 1371 1367 1363 1359 1355 1350 1345 1341 1337 1333 1329 1325 1322 1319 1316 1313 1310 1307 1304 1302 1300 1298 1297 1295 1294 1293
1443 1439 1435 1431 1426 1422 1418 1414 1409 1404 1401 1395 1389 1384 1377 1370 1367 1365 1361 1355 1351 1346 1342 1336 1332 1328 1324 1320 1317 1314 1312 1309 1306 1303 1301 1298 1296 1294 1292 1291 1290 1289 1288
1435 1431 1427 1423 1418 1414 1408 1403 1399 1396 1392 1387 1382 1378 1371 1366 1360 1356 1352 1348 1343 1339 1335 1329 1325 1321 1318 1314 1311 1307 1305 1302 1300 1297 1295 1292 1290 1288 1287 1285 1285 1284 1283
1428 1424 1419 1415 1410 1405 1400 1395 1388 1383 1381 1377 1373 1368 1363 1358 1353 1348 1343 1339 1335 1331 1326 1322 1318 1315 1311 1308 1305 1302 1299 1296 1294 1291 1289 1287 1285 1283 1282 1280 1279 1278 1278
1421 1416 1412 1407 1402 1398 1393 1388 1382 1376 1369 1364 1362 1359 1354 1349 1345 1340 1336 1331 1325 1322 1319 1315 1311 1308 1305 1302 1298 1296 1293 1290 1288 1286 1284 1282 1280 1278 1277 1275 1274 1274 1273
1412 1408 1404 1399 1394 1390 1385 1380 1375 1369 1363 1357 1352 1348 1345 1341 1336 1332 1328 1324 1319 1315 1311 1308 1305 1301 1298 1295 1292 1289 1287 1284 1282 1280 1278 1276 1274 1273 1272 1270 1269 1268 1268
1404 1400 1395 1390 1386 1381 1376 1372 1366 1361 1356 1350 1345 1340 1336 1332 1327 1323 1319 1316 1312 1308 1304 1301 1298 1295 1292 1288 1286 1283 1280 1278 1276 1274 1272 1270 1269 1267 1266 1265 1264 1263 1262
1395 1391 1387 1382 1377 1373 1368 1363 1359 1354 1348 1343 1338 1334 1330 1325 1320 1315 1311 1308 1304 1300 1297 1294 1290 1287 1285 1282 1279 1276 1274 1272 1270 1268 1266 1264 1263 1261 1260 1259 1258 1257 1256
1387 1382 1378 1373 1369 1364 1360 1355 1350 1346 1340 1335 1329 1325 1322 1317 1312 1308 1304 1300 1296 1293 1290 1286 1283 1280 1277 1275 1272 1270 1267 1265 1263 1261 1259 1258 1257 1255 1254 1253 1252 1251 1251
1378 1374 1369 1364 1360 1355 1351 1346 1342 1337 1332 1327 1322 1317 1312 1308 1304 1300 1296 1292 1288 1285 1282 1279 1275 1272 1270 1267 1265 1263 1260 1258 1256 1255 1253 1251 1250 1249 1248 1247 1246 1245 1244
1370 1365 1360 1356 1351 1347 1342 1337 1333 1328 1323 1319 1314 1309 1304 1300 1296 1292 1288 1284 1280 1277 1274 1271 1267 1264 1262 1260 1257 1255 1253 1251 1249 1247 1246 1244 1243 1242 1241 1240 1239 1238 1238
1361 1357 1352 1347 1343 1338 1333 1328 1324 1319 1315 1310 1305 1301 1296 1292 1288 1283 1279 1276 1272 1269 1265 1262 1259 1256 1254 1251 1249 1247 1245 1243 1242 1240 1239 1237 1236 1235 1234 1233 1232 1231 1231
1352 1348 1343 1338 1334 1329 1325 1320 1315 1311 1306 1302 1297 1293 1288 1284 1279 1275 1271 1268 1264 1261 1257 1254 1251 1248 1246 1243 1241 1238 1237 1235 1234 1233 1232 1230 1228 1227 1226 1225 1224 1224 1223